Cairo, Egypt

4:12 PM EET on January 17, 2018 (GMT +0200)
Cairo International Airport

Weather History for HECA - May, 2013

Change the Weather History Date:

Friday, May 10, 2013

  Actual Average Record
Temperature  
Mean Temperature 80 °F -  
Max Temperature 92 °F 88 °F 105 °F (2017)
Min Temperature 69 °F 66 °F 50 °F (1999)
Cooling Degree Days 16    
Growing Degree Days 30 (Base 50)    
Moisture  
Dew Point 53 °F    
Average Humidity 48    
Maximum Humidity 78    
Minimum Humidity 8    
Precipitation  
Precipitation 0.00 in 0.00 in - ()
Sea Level Pressure  
Sea Level Pressure 29.85 in    
Wind  
Wind Speed 12 mph ()    
Max Wind Speed 24 mph    
Max Gust Speed -    
Visibility 4.5 miles    
Events      
Averages and records for this station are not official NWS values.
T = Trace of Precipitation, MM = Missing Value Source: Averaged Metar Reports

Daily Weather History Graph

Daily Weather History Graph

Search for Another Location

Airport or City:

Trip Planner

Search our weather history database for the weather conditions in past years. The results will help you decide how hot, cold, wet, or windy it might be!

Date:

Astronomy

May. 10, 2013 Rise Set
Actual Time 5:04 AM EET 6:37 PM EET
Civil Twilight 4:38 AM EET 7:03 PM EET
Nautical Twilight 4:07 AM EET 7:34 PM EET
Astronomical Twilight 3:34 AM EET 8:07 PM EET
Moon 5:14 AM EET (5/10) 7:08 PM EET (5/10)
Length of Visible Light 14h 25m
Length of Day
13h 33m
New Moon, 0% of the Moon is Illuminated
May 10
New Moon
May 18
First Quarter
May 25
Full
May 31
Last Quarter
Jun 8
New

Hourly Weather History & Observations

Time (EET) Temp. Heat Index Dew Point Humidity Pressure Visibility Wind Dir Wind Speed Gust Speed Precip Events Conditions
12:00 AM 71.6 °F - 60.8 °F 69% 29.86 in - ENE 12.7 mph - N/A   Clear
12:30 AM 71.6 °F - 60.8 °F 69% 29.83 in - ENE 17.3 mph - N/A   Clear
1:00 AM 69.8 °F - 62.6 °F 78% 29.83 in - ENE 21.9 mph - N/A   Clear
1:30 AM 69.8 °F - 62.6 °F 78% 29.83 in - ENE 19.6 mph - N/A   Clear
2:00 AM 70 °F - 62 °F 69% 29.84 in 6 mi ENE 13.8 mph - -  
2:00 AM 69.8 °F - 62.6 °F 78% 29.83 in - ENE 13.8 mph - N/A   Clear
2:30 AM 69.8 °F - 60.8 °F 73% 29.83 in - NE 13.8 mph - N/A   Clear
3:00 AM 69.8 °F - 60.8 °F 73% 29.83 in - NE 9.2 mph - N/A   Clear
3:30 AM 69.8 °F - 60.8 °F 73% 29.83 in - NE 9.2 mph - N/A   Clear
4:00 AM 69.8 °F - 62.6 °F 78% 29.83 in - NNE 9.2 mph - N/A   Clear
4:30 AM 69.8 °F - 62.6 °F 78% 29.83 in - NNE 9.2 mph - N/A   Clear
5:00 AM 69.8 °F - 62.6 °F 78% 29.83 in - NNE 6.9 mph - N/A   Clear
5:30 AM 69.8 °F - 59.0 °F 68% 29.83 in - ENE 6.9 mph - N/A   Clear
6:00 AM 69.8 °F - 59.0 °F 68% 29.83 in - ENE 9.2 mph - N/A   Clear
6:30 AM 71.6 °F - 59.0 °F 64% 29.83 in - ENE 8.1 mph - N/A   Clear
7:00 AM 73.4 °F - 55.4 °F 53% 29.83 in - East 2.3 mph - N/A   Clear
7:30 AM 78.8 °F - 55.4 °F 44% 29.83 in - West 2.3 mph - N/A   Clear
8:00 AM 78 °F - 55 °F 34% 29.83 in 6 mi West 1.2 mph - -   Partly Cloudy
8:00 AM 78.8 °F - 55.4 °F 44% 29.83 in - West 1.2 mph - N/A   Clear
8:30 AM 82.4 °F 81.4 °F 53.6 °F 37% 29.83 in - West 3.5 mph - N/A   Clear
9:00 AM 84.2 °F - 48.2 °F 29% 29.83 in - SSW 9.2 mph - N/A   Clear
9:30 AM 84.2 °F - 46.4 °F 27% 29.83 in - SSW 15.0 mph - N/A   Clear
10:00 AM 86.0 °F - 46.4 °F 25% 29.83 in - South 16.1 mph - N/A   Clear
10:30 AM 87.8 °F - 46.4 °F 24% 29.83 in - South 17.3 mph - N/A   Clear
11:00 AM 87.8 °F - 46.4 °F 24% 29.83 in - SSW 12.7 mph - N/A   Clear
11:30 AM 87.8 °F - 41.0 °F 19% 29.83 in - South 16.1 mph - N/A   Clear
12:00 PM 87.8 °F - 41.0 °F 19% 29.83 in - SSW 16.1 mph - N/A   Clear
12:30 PM 89.6 °F - 35.6 °F 15% 29.80 in - SW 16.1 mph - N/A   Clear
1:00 PM 89.6 °F - 39.2 °F 17% 29.80 in - SW 23.0 mph - N/A   Clear
1:30 PM 89.6 °F - 39.2 °F 17% 29.80 in - SW 23.0 mph - N/A   Clear
2:00 PM 92 °F - 38 °F 8% 29.79 in 6 mi SSW 19.6 mph - -  
2:00 PM 93.2 °F - 37.4 °F 14% 29.80 in - SSW 19.6 mph - N/A   Clear
2:30 PM 91.4 °F - 37.4 °F 15% 29.80 in 6.2 mi West 16.1 mph - N/A   Scattered Clouds
3:00 PM 89.6 °F - 41.0 °F 18% 29.77 in 2.5 mi West 19.6 mph - N/A   Sand
3:30 PM 82.4 °F 82.0 °F 57.2 °F 42% 29.80 in 1.9 mi NW 24.2 mph - N/A   Sand
4:00 PM 80.6 °F 80.5 °F 55.4 °F 42% 29.83 in 2.5 mi NW 24.2 mph - N/A   Sand
4:30 PM 80.6 °F 80.3 °F 53.6 °F 39% 29.83 in 2.5 mi NW 17.3 mph - N/A   Sand
5:00 PM 78.8 °F - 55.4 °F 44% 29.83 in 3.7 mi NW 17.3 mph - N/A   Unknown
5:30 PM 77.0 °F - 55.4 °F 47% 29.86 in 6.2 mi NW 17.3 mph - N/A   Scattered Clouds
6:00 PM 77.0 °F - 55.4 °F 47% 29.86 in - NNW 13.8 mph - N/A   Clear
6:30 PM 75.2 °F - 57.2 °F 53% 29.89 in - North 16.1 mph - N/A   Clear
7:00 PM 73.4 °F - 57.2 °F 57% 29.89 in - North 13.8 mph - N/A   Clear
7:30 PM 73.4 °F - 57.2 °F 57% 29.89 in - North 13.8 mph - N/A   Clear
8:00 PM 72 °F - 57 °F 49% 29.91 in 6 mi NNE 15.0 mph - -   Scattered Clouds
8:00 PM 71.6 °F - 57.2 °F 60% 29.92 in - NNE 15.0 mph - N/A   Clear
8:30 PM 71.6 °F - 57.2 °F 60% 29.92 in - NNE 15.0 mph - N/A   Clear
9:00 PM 71.6 °F - 57.2 °F 60% 29.95 in - NNE 10.4 mph - N/A   Clear
9:30 PM 71.6 °F - 57.2 °F 60% 29.95 in - NNE 10.4 mph - N/A   Clear
10:00 PM 71.6 °F - 55.4 °F 57% 29.92 in - ENE 11.5 mph - N/A   Clear
10:30 PM 71.6 °F - 55.4 °F 57% 29.92 in - ENE 11.5 mph - N/A   Clear
11:00 PM 71.6 °F - 51.8 °F 50% 29.89 in - East 11.5 mph - N/A   Clear
11:30 PM 71.6 °F - 51.8 °F 50% 29.89 in - East 9.2 mph - N/A   Clear